Location: Newark
(54.9353°N, 24.1167°E)
Time: 09:10:29
(UTC+00:00)

Envisat - Pass Details

Date: 29 September 2020
Orbit: 764 x 766 km, 98.1° (Epoch: 23 October)

Event Time Altitude Azimuth Distance (km) Brightness Sun altitude
Rises 17:19:45 0° 226° (SW) 3,227 6.8 -11.7°
Reaches altitude 10° 17:23:52 10° 260° (W) 2,308 6.6 -12.3°
Maximum altitude 17:25:31 11° 279° (W) 2,208 6.8 -12.5°
Drops below altitude 10° 17:27:12 10° 298° (WNW) 2,313 6.8 -12.8°
Sets 17:31:21 0° 332° (NNW) 3,247 6.9 -13.3°
